Content
SEND FEEDBACK

Daily
Averages
Monthly
Summary
United States of America

MILLGAP, VIRGINIA


Home > North America > United States > Virginia
Elevation: 252 feet     Latitude: 38 21N     Longitude: 079 43W

WEATHER
 
SELECT A DAY
Number of Records: 447,339;   Date Range: 1/1/95 - 4/14/14
 
SHARE

PRINT THIS DATA

[ ← Previous Day ]
WEATHER ALMANAC - FEBRUARY 18, 2013
[ Next Day → ]
[ °C ]   °F
Weather ElementAverageHighLow
Temperature25.6 °F39.2 °F (2:15 pm)10.4 °F (12:35 am)
Dewpoint11.5 °F21.2 °F (2:15 pm)1.4 °F (12:35 am)
Humidity55.9 %67 % (12:35 am)41 % (3:15 pm)
Barometer30.13 in30.20 in (10:15 am)30.04 in (12:35 am)
Wind Speed12.6 mph20.7 mph (12:35 am)
Wind Gust26.5 mph (12:55 am)
Weather ElementAverage
Visibility10 mi
Wind DirectionWSW (232.3 °)

Weather ElementTotal
Precipitation---
Heating Degree Days40.2 (Base 65)
Averaged from 62 records on February 18, 2013
WEATHER CONDITIONS BREAKOUT
WIND DIRECTION BREAKOUT
WEATHER BY HOUR - FEBRUARY 18, 2013
[ °C ]   °F
Local TimeTemperatureDewpointHumidityBarometerVisibilityWind DirectionWind SpeedGust SpeedPrecipitationEventsConditions
12:35 AM10.4 °F1.4 °F67 %30.04 in10.0 miWNW (290°)20.7 mph24.2 mphClear
12:55 AM10.4 °F1.4 °F67 %30.04 in10.0 miWest (280°)20.7 mph26.5 mphClear
1:15 AM10.4 °F1.4 °F67 %30.04 in10.0 miWest (280°)19.6 mphClear
1:55 AM10.4 °F1.4 °F67 %30.05 in10.0 miWest (280°)17.3 mph25.3 mphClear
2:15 AM10.4 °F1.4 °F67 %30.06 in10.0 miWest (280°)12.7 mph19.6 mphClear
2:35 AM10.4 °F1.4 °F67 %30.05 in10.0 miWest (270°)15.0 mphClear
2:55 AM10.4 °F1.4 °F67 %30.06 in10.0 miWest (280°)13.8 mph19.6 mphClear
3:15 AM12.2 °F1.4 °F62 %30.07 in10.0 miWest (270°)15.0 mph19.6 mphClear
3:35 AM12.2 °F1.4 °F62 %30.07 in10.0 miWest (270°)15.0 mphClear
3:55 AM12.2 °F1.4 °F62 %30.07 in10.0 miWest (270°)16.1 mph19.6 mphClear
4:15 AM12.2 °F1.4 °F62 %30.08 in10.0 miWest (270°)16.1 mph20.7 mphClear
4:35 AM12.2 °F1.4 °F62 %30.08 in10.0 miWest (270°)15.0 mphClear
4:55 AM12.2 °F1.4 °F62 %30.10 in10.0 miWest (270°)16.1 mphClear
5:15 AM12.2 °F1.4 °F62 %30.11 in10.0 miWest (270°)17.3 mphClear
5:35 AM12.2 °F1.4 °F62 %30.12 in10.0 miWest (270°)17.3 mphClear
5:55 AM12.2 °F1.4 °F62 %30.13 in10.0 miWest (280°)17.3 mphClear
6:15 AM12.2 °F1.4 °F62 %30.13 in10.0 miWest (280°)17.3 mphClear
6:55 AM12.2 °F1.4 °F62 %30.14 in10.0 miWest (270°)17.3 mphClear
7:15 AM15.8 °F1.4 °F53 %30.14 in10.0 miWest (270°)19.6 mph23.0 mphClear
7:55 AM17.6 °F3.2 °F53 %30.17 in10.0 miWest (270°)17.3 mphClear
8:15 AM17.6 °F5.0 °F58 %30.17 in10.0 miWest (270°)17.3 mphClear
8:35 AM19.4 °F6.8 °F58 %30.18 in10.0 miWest (270°)15.0 mphClear
8:55 AM19.4 °F6.8 °F58 %30.19 in10.0 miWest (270°)12.7 mphClear
9:15 AM21.2 °F6.8 °F54 %30.19 in10.0 miWest (270°)13.8 mphClear
9:35 AM21.2 °F10.4 °F63 %30.19 in10.0 miWest (270°)13.8 mphClear
9:55 AM24.8 °F10.4 °F54 %30.19 in10.0 miWest (280°)13.8 mphClear
10:15 AM24.8 °F10.4 °F54 %30.20 in10.0 miWest (270°)15.0 mphClear
10:35 AM26.6 °F12.2 °F55 %30.20 in10.0 miWest (270°)10.4 mphClear
10:55 AM28.4 °F14.0 °F55 %30.20 in10.0 miWest (270°)11.5 mphClear
11:15 AM28.4 °F14.0 °F55 %30.20 in10.0 miWest (270°)11.5 mphClear
11:35 AM30.2 °F15.8 °F55 %30.20 in10.0 miWest (260°)11.5 mphClear
11:55 AM32.0 °F17.6 °F55 %30.19 in10.0 miWest (260°)10.4 mphClear
12:15 PM33.8 °F17.6 °F52 %30.19 in10.0 miWest (260°)10.4 mphClear
12:35 PM33.8 °F17.6 °F52 %30.19 in10.0 miWSW (250°)10.4 mphClear
12:55 PM35.6 °F17.6 °F48 %30.18 in10.0 miWest (260°)10.4 mphClear
1:15 PM35.6 °F19.4 °F52 %30.18 in10.0 miWSW (250°)9.2 mphClear
1:35 PM37.4 °F19.4 °F48 %30.17 in10.0 miWSW (240°)11.5 mphClear
1:55 PM37.4 °F19.4 °F48 %30.17 in10.0 miSW (230°)11.5 mphClear
2:15 PM39.2 °F21.2 °F49 %30.16 in10.0 miWSW (240°)11.5 mphClear
2:35 PM39.2 °F21.2 °F49 %30.16 in10.0 miWSW (250°)11.5 mph19.6 mphClear
3:15 PM37.4 °F15.8 °F41 %30.15 in10.0 miSouth (170°)5.8 mphClear
3:35 PM37.4 °F17.6 °F45 %30.15 in10.0 miSSE (160°)6.9 mphClear
3:55 PM37.4 °F17.6 °F45 %30.15 in10.0 miSSE (160°)6.9 mphClear
4:15 PM37.4 °F17.6 °F45 %30.15 in10.0 miSouth (170°)6.9 mphClear
4:35 PM37.4 °F17.6 °F45 %30.15 in10.0 miSouth (180°)6.9 mphClear
4:55 PM37.4 °F17.6 °F45 %30.14 in10.0 miSouth (170°)4.6 mphClear
5:15 PM35.6 °F17.6 °F48 %30.14 in10.0 miSouth (170°)6.9 mphClear
5:35 PM35.6 °F17.6 °F48 %30.15 in10.0 miSouth (180°)6.9 mphClear
6:15 PM35.6 °F17.6 °F48 %30.15 in10.0 miSouth (170°)8.1 mphClear
6:35 PM35.6 °F17.6 °F48 %30.15 in10.0 miSouth (170°)8.1 mphClear
6:55 PM33.8 °F17.6 °F52 %30.14 in10.0 miSouth (170°)8.1 mphClear
7:15 PM35.6 °F17.6 °F48 %30.14 in10.0 miSouth (180°)11.5 mph16.1 mphClear
7:35 PM35.6 °F17.6 °F48 %30.14 in10.0 miSouth (170°)11.5 mph18.4 mphClear
7:55 PM33.8 °F17.6 °F52 %30.13 in10.0 miSouth (170°)12.7 mph18.4 mphClear
8:15 PM33.8 °F17.6 °F52 %30.12 in10.0 miSouth (180°)12.7 mphClear
8:35 PM33.8 °F19.4 °F56 %30.11 in10.0 miSouth (170°)12.7 mph19.6 mphClear
9:37 PM33.8 °F19.4 °F56 %30.11 in10.0 miSouth (180°)13.8 mphClear
10:15 PM32.0 °F19.4 °F60 %30.11 in10.0 miSouth (170°)12.7 mph19.6 mphClear
10:35 PM32.0 °F19.4 °F60 %30.10 in10.0 miSSE (160°)10.4 mph16.1 mphClear
11:15 PM30.2 °F19.4 °F64 %30.07 in10.0 miSSE (150°)9.2 mphClear
11:55 PM30.2 °F19.4 °F64 %30.04 in10.0 miSSE (150°)10.4 mph16.1 mphClear
11:56 PM30.2 °F19.4 °F64 %30.04 in10.0 miSSE (150°)9.2 mph16.1 mphClear
Hourly data recorded from KHSP, located 28.31 miles away from Millgap, Virginia







STORIES FROM OUR PARTNERS